Regional Weather Roundup
Issued by NWS

Home | Current Version | Previous Version | Graphics & Text | Print | Product List | Glossary On
Versions: 1 2 3 4 5 6 7 8 9 10 11 12 13 14 15 16 17 18 19 20 21 22 23 24 25 26 27 28 29 30 31 32 33 34 35 36 37 38 39 40 41 42 43 44 45 46 47 48 49 50
000
ASUS43 KIND 020109
RWRIN

WEATHER ROUNDUP FOR INDIANA
NATIONAL WEATHER SERVICE INDIANAPOLIS IN
900 PM EDT WED JUL 01 2015

NOTE: "FAIR" INDICATES FEW OR NO CLOUDS BELOW 12,000 FEET WITH NO
SIGNIFICANT WEATHER AND/OR OBSTRUCTIONS TO VISIBILITY.

* - STATION DOES NOT REPORT WEATHER SUCH AS PRECIPITATION OR FOG.

+ - STATION NOT QUALITY CONTROLLED BY THE NATIONAL WEATHER SERVICE.
    USE DATA WITH CAUTION...ESPECIALLY DEWPOINT AND RELATIVE
    HUMIDITY OBSERVATIONS.

INZ001>003-010>013-019-020-020200-
NORTHWEST INDIANA

CITY           SKY/WX    TMP DP  RH WIND       PRES   REMARKS
GARY /AIRPORT/ MOCLDY    59  54  82 N9        29.99S
KNOX *+        MOCLDY    57  50  77 N8        29.97S
LA PORTE +     MOCLDY    59  53  79 N9        29.99R
MICHIGAN CITY+ CLOUDY    55  52  88 N5        29.99S
MONTICELLO +   PTCLDY    65  55  71 N10       29.95R
RENSSELAER +   PTCLDY    63  54  72 N9        29.97S
VALPARAISO     MOCLDY    58  51  78 N7        29.99R

$$

LMZ046-743>745-020200-
SOUTHERN LAKE MICHIGAN

STATION/POSITION TIME  TEMP    WIND        PRES    WAVE
                       AIR SEA DIR/SP/G            HT
                 (UTC) (F)     (DEG/KT/KT) (MB)    (FT)
BURNS HARBOR     0100   59      20/ 12/ 15 1015.9S
MICHIGAN CITY    0100   58      10/ 11/ 14   N/A
5NW MICH CITY    0100   59 65   30/ 10/ 14   N/A     3

$$

INZ004-005-014>016-021>024-020200-
NORTH CENTRAL INDIANA

CITY           SKY/WX    TMP DP  RH WIND       PRES   REMARKS
ELKHART        MOCLDY    59  52  77 NW6       29.97R
GOSHEN         MOCLDY    61  52  72 NW10      29.96R
LOGANSPORT +   MOCLDY    64  46  52 N12G18    29.96R
PERU/GRISSOM   MOCLDY    67  59  75 N10       29.94R
ROCHESTER +    MOCLDY    63  54  72 N8        29.96R
SOUTH BEND     MOCLDY    59  52  77 N8        29.98R
WARSAW +         N/A     61  54  77 N6        29.96R

$$

INZ006>009-017-018-025>027-020200-
NORTHEAST INDIANA

CITY           SKY/WX    TMP DP  RH WIND       PRES   REMARKS
ANGOLA *+      CLEAR     66  57  72 NW6       29.94R
AUBURN +       MOCLDY    64  54  68 NW6       29.95R
FORT WAYNE     MOCLDY    67  57  70 NW5       29.94R
HUNTINGTON +   PTCLDY    66  57  71 NW3       29.94R

$$

INZ028-029-035-036-043>045-051>053-020200-
WEST CENTRAL INDIANA

CITY           SKY/WX    TMP DP  RH WIND       PRES   REMARKS
CRAWFORDSVL +  MOCLDY    68  62  79 N5        29.93R
GREENCASTLE +  MOCLDY    70  61  73 NE5       29.92R
LAFAYETTE      MOCLDY    66  57  72 NE13      29.94R
TERRE HAUTE    MOCLDY    71  69  93 NE3       29.90R FOG

$$

INZ030>032-037>040-046>048-054>057-064-065-020200-
CENTRAL INDIANA

CITY           SKY/WX    TMP DP  RH WIND       PRES   REMARKS
CP ATTERBURY + MOCLDY    72  66  83 CALM      29.92R
COLUMBUS       MOCLDY    72  64  78 SE5       29.92
FISHERS *+     CLOUDY    68  66  94 CALM      29.92
FRANKFORT +    MOCLDY    70  62  76 N12       29.95S
GREENWOOD *+   CLOUDY    73  61  64 E3        29.92S
INDIANAPOLIS   CLOUDY    74  62  66 NE5       29.90R
-EAGLE CREEK   MOCLDY    73  63  70 CALM      29.92R
KOKOMO *+      MOCLDY    70  59  68 N9        29.93S
MARION +       MOCLDY    69  59  70 N5        29.94R
MT COMFORT *+  MOCLDY    72  66  83 CALM      29.93R
SHELBYVILLE    CLOUDY    74  66  76 NE3       29.91R
ZIONSVILLE +   CLOUDY    73  62  69 N3        29.94R

$$

INZ033-034-041-042-049-050-058-059-020200-
EAST CENTRAL INDIANA

CITY           SKY/WX    TMP DP  RH WIND       PRES   REMARKS
MUNCIE         MOCLDY    71  63  75 N6        29.93R

$$

INZ060-061-067>069-081>083-085>088-020200-
SOUTHWEST INDIANA

CITY           SKY/WX    TMP DP  RH WIND       PRES   REMARKS
EVANSVILLE     CLOUDY    78  67  68 SW10      29.89S
HUNTINGBURG *+ CLOUDY    72  68  88 S7        29.90S
WASHINGTON +   MOCLDY    73  69  87 E3        29.88S

$$

INZ062-063-066-070>080-084-089>092-020200-
SOUTH CENTRAL AND SOUTHEAST INDIANA

CITY           SKY/WX    TMP DP  RH WIND       PRES   REMARKS
BLOOMINGTON    LGT RAIN  72  69  90 E3        29.91R
MADISON *+     MOCLDY    72  66  83 CALM      29.93S
NORTH VERNON + CLOUDY    73  70  88 W3        29.92R
SEYMOUR +      CLOUDY    73  70  88 CALM      29.91R

$$



USA.gov is the U.S. government's official web portal to all federal, state and local government web resources and services.